Погода в Эрсаконе

Россия / Карачаево-Черкесская Республика     44°25′43″N   41°46′26″E
темп.,
°C
ветер,
м/с
пор.,
м/с
влажн.,
%
обл.,
%
осадки,
мм/ч
давл.,
гПа
погр.,
м
19 июня, сб
сб1900:00+16вюв22880 0.0 101618
03:00+15вюв22900 0.0 101616
06:00+17в26880 0.0 1015166
09:00+23в7137257 0.0 10131026
12:00+25в9137099 0.0 10121262
15:00+26в91671100 0.0 10111383
18:00+24в9147227 0.0 1010952
21:00+21в920585 0.0 1011806
20 июня, вс
вс2000:00+18в817680 0.0 1011558
03:00+17в51278100 0.0 1012347
06:00+17вюв388741 0.0 1012282
09:00+22вюв227624 0.0 1012463
12:00+25св2270100 0.0 1012840
15:00+26в326813 0.0 1012878
18:00+26вюв11725 0.0 1011659
21:00+21ююв11861 0.0 101211
21 июня, пн
пн2100:00+19в12890 0.0 101228
03:00+17вюв22890 0.0 101224
06:00+18в23890 0.0 101298
09:00+23в34760 0.0 1011455
12:00+26в56650 0.0 1010811
15:00+27в796897 0.0 1009714
18:00+26юв497439 0.0 1010645
21:00+19в49676 0.2 1012154
22 июня, вт
вт2200:00+17в49584 0.1 1011129
03:00+15вюв23600 0.1 101237
06:00+17юв23730 0.0 101282
09:00+23вюв22747 0.0 1011392
12:00+27всв32686 0.0 1011872
15:00+28в43615 0.0 1011951
18:00+27в247184 0.0 1011478
21:00+22в11820 0.0 101211
23 июня, ср
ср2300:00+19вюв23840 0.0 101131
03:00+18в11840 0.0 101216
06:00+19ююв11850 0.0 101259
09:00+23зсз568018 0.0 1013637
12:00+26зсз33678 0.0 10131044
15:00+27сз226226 0.0 10131248
18:00+27с116640 0.0 10131060
21:00+22юв11830 0.0 101411